Regional Weather Roundup
Issued by NWS

Home | Current Version | Previous Version | Text Only | Print | Product List | Glossary On
Versions: 1 2 3 4 5 6 7 8 9 10 11 12 13 14 15 16 17 18 19 20 21 22 23 24 25 26 27 28 29 30 31 32 33 34 35 36 37 38 39 40 41 42 43 44 45 46 47 48 49 50
000
ASUS45 KABQ 061901
RWRNM
NEW MEXICO REGIONAL WEATHER ROUNDUP
NATIONAL WEATHER SERVICE ALBUQUERQUE NM
100 PM MDT MON JUL 06 2015

NOTE: "FAIR" MEANS FEW OR NO CLOUDS BELOW 12,000 FEET AGL WITH NO
       SIGNIFICANT WEATHER OR OBSTRUCTIONS TO VISION.

      THIS PRODUCT IS RELEASED AS TWO VERSIONS.  ONE VERSION NEAR
      THE TOP OF THE HOUR CONTAINING PRELIMINARY DATA FROM ALBUQUERQUE
      AND OTHER STATIONS.  A FINAL VERSION WITH ADDITIONAL DATA IS
      ISSUED ABOUT 10 MINUTES AFTER THE HOUR.

NMZ501-503-504-510>518-062000-
NORTHWEST PLATEAU/NORTHCENTRAL MOUNTAINS

CITY           SKY/WX    TMP DP  RH WIND       PRES   REMARKS
FARMINGTON     SUNNY     87  50  27 W12G21    30.13F
SANTA FE       MOSUNNY   80  54  40 W6        30.19F
TAOS           PTSUNNY   75  48  38 NE6       30.26F

$$
NMZ402-403-502-505>509-062000-
WESTCENTRAL MOUNTAINS/SOUTHWEST MOUNTAINS

CITY           SKY/WX    TMP DP  RH WIND       PRES   REMARKS
GALLUP         MOSUNNY   80  51  36 VRB7      30.24F
SILVER CITY      N/A     84  50  30 W16       30.19F

$$
NMZ407-409-411-412-062000-
SOUTHERN DESERTS

CITY           SKY/WX    TMP DP  RH WIND       PRES   REMARKS
DEMING         MOSUNNY   89  53  29 W7        30.09F
HOLLOMAN AFB   MOSUNNY   90  54  29 W8        30.04F
ALAMOGORDO     SUNNY     90  55  31 SW10G17   30.06F
T OR C         MOSUNNY   90  51  26 NE8       30.11F

$$
NMZ519>523-062000-
CENTRAL VALLEYS/CENTRAL HIGHLANDS

CITY           SKY/WX    TMP DP  RH WIND       PRES   REMARKS
ALBUQUERQUE    MOSUNNY   84  53  34 W8        30.15F
DOUBLE EAGLE   MOSUNNY   82  54  36 W6        30.19F
MORIARTY ARPT    N/A     82  48  31 SW5       30.21F
CLINES CORNERS HVY RAIN  62  58  86 S8        30.28S FOG
BELEN          FAIR      85  51  30 E6        30.14F
SOCORRO        NOT AVBL

$$
NMZ524>526-539-540-062000-
SOUTHCENTRAL MOUNTAINS

CITY           SKY/WX    TMP DP  RH WIND       PRES   REMARKS
RUIDOSO        NOT AVBL

$$
NMZ527>531-062000-
NORTHEAST HIGHLANDS/NORTHEAST PLAINS

CITY           SKY/WX    TMP DP  RH WIND       PRES   REMARKS
LAS VEGAS      PTSUNNY   73  56  54 NE15      30.28S
RATON          LGT RAIN  65  58  78 NE9       30.26S
CLAYTON        LGT RAIN  74  60  61 N21G28    30.17S

$$
NMZ532>537-062000-
EASTCENTRAL PLAINS

CITY           SKY/WX    TMP DP  RH WIND       PRES   REMARKS
TUCUMCARI      PTSUNNY   88  59  37 NE13G23   30.05F
CANNON AFB     PTSUNNY   87  61  40 W3        30.02F
CLOVIS AIRPORT PTSUNNY   90  61  37 E7          N/A

$$
NMZ028-029-538-062000-
SOUTHEAST PLAINS

CITY           SKY/WX    TMP DP  RH WIND       PRES   REMARKS
ROSWELL        SUNNY     95  56  26 E7        29.97F
ARTESIA        SUNNY     93  59  31 VRB5G12   29.97F
CARLSBAD       MOSUNNY   99  58  25 S8        29.94F HX  98
HOBBS          MOSUNNY   93  55  27 SW9G16    30.00F


$$



USA.gov is the U.S. government's official web portal to all federal, state and local government web resources and services.